Karlovy Vary, Czech Republic

5:59 PM CEST on April 24, 2017 (GMT +0200)
Karlovy Vary

Weather History for LKKV - November, 2011

Change the Weather History Date:

Thursday, November 17, 2011

  Actual Average (EDQM) Record (EDQM)
Temperature  
Mean Temperature 28 °F -  
Max Temperature 33 °F 37 °F 55 °F (2006)
Min Temperature 24 °F 31 °F 24 °F (1998)
Degree Days  
Heating Degree Days 36    
Moisture  
Dew Point 29 °F    
Average Humidity 94    
Maximum Humidity 100    
Minimum Humidity 87    
Precipitation  
Precipitation 0.00 in - - ()
Sea Level Pressure  
Sea Level Pressure 30.18 in    
Wind  
Wind Speed 5 mph ()    
Max Wind Speed 9 mph    
Max Gust Speed -    
Visibility 1.8 miles    
Events Fog    
Averages and records for this station are not official NWS values.
T = Trace of Precipitation, MM = Missing Value Source: Averaged Metar Reports

Daily Weather History Graph

Daily Weather History Graph

Search for Another Location

Airport or City:

Trip Planner

Search our weather history database for the weather conditions in past years. The results will help you decide how hot, cold, wet, or windy it might be!

Date:

Astronomy

Nov. 17, 2011 Rise Set
Actual Time 7:24 AM CET 4:21 PM CET
Civil Twilight 6:48 AM CET 4:57 PM CET
Nautical Twilight 6:08 AM CET 5:37 PM CET
Astronomical Twilight 5:30 AM CET 6:15 PM CET
Moon 10:34 PM CET (11/17) 12:15 PM CET (11/17)
Length of Visible Light 10h 09m
Length of Day
8h 57m
Waning Gibbous, 62% of the Moon is Illuminated
Nov 17
Waning Gibbous
Nov 18
Last Quarter
Nov 25
New
Dec 2
First Quarter
Dec 10
Full

Hourly Weather History & Observations

Time (CET) Temp. Windchill Dew Point Humidity Pressure Visibility Wind Dir Wind Speed Gust Speed Precip Events Conditions
12:00 AM 24.8 °F 17.9 °F 24.8 °F 100% 30.18 in 0.7 mi ESE 5.8 mph - N/A   Overcast
1:00 AM 24.8 °F 16.9 °F 24.8 °F 100% 30.18 in 0.5 mi ESE 6.9 mph - N/A Fog Light Freezing Fog
2:00 AM 26.6 °F 22.6 °F 24.8 °F 93% 30.18 in 0.5 mi ESE 3.5 mph - N/A Fog Light Freezing Fog
3:00 AM 26.6 °F 22.6 °F 24.8 °F 93% 30.18 in 0.5 mi SE 3.5 mph - N/A Fog Light Freezing Fog
4:00 AM 26.6 °F 22.6 °F 24.8 °F 93% 30.18 in 0.7 mi SSE 3.5 mph - N/A   Overcast
5:00 AM 26.6 °F - 24.8 °F 93% 30.18 in 0.9 mi Variable 2.3 mph - N/A   Overcast
6:00 AM 26.6 °F 22.6 °F 24.8 °F 93% 30.18 in 0.9 mi SSW 3.5 mph - N/A   Overcast
7:00 AM 26.6 °F 22.6 °F 24.8 °F 93% 30.18 in 0.7 mi South 3.5 mph - N/A   Overcast
7:30 AM 26.6 °F 22.6 °F 24.8 °F 93% 30.18 in 1.9 mi SSW 3.5 mph - N/A   Overcast
8:00 AM 26.6 °F 21.2 °F 24.8 °F 93% 30.18 in 2.2 mi SW 4.6 mph - N/A   Overcast
8:30 AM 26.6 °F 22.6 °F 24.8 °F 93% 30.18 in - SW 3.5 mph - N/A   Overcast
9:00 AM 26.6 °F 21.2 °F 24.8 °F 93% 30.18 in 2.5 mi SW 4.6 mph - N/A   Mostly Cloudy
9:30 AM 26.6 °F 20.0 °F 24.8 °F 93% 30.18 in 2.5 mi WSW 5.8 mph - N/A   Mostly Cloudy
10:00 AM 26.6 °F 22.6 °F 24.8 °F 93% 30.18 in 2.8 mi SW 3.5 mph - N/A   Mostly Cloudy
10:30 AM 28.4 °F 24.6 °F 26.6 °F 93% 30.18 in 2.8 mi SSW 3.5 mph - N/A   Mostly Cloudy
11:00 AM 28.4 °F 24.6 °F 26.6 °F 93% 30.18 in 2.5 mi SW 3.5 mph - N/A   Mostly Cloudy
11:30 AM 28.4 °F 24.6 °F 26.6 °F 93% 30.18 in 2.5 mi WSW 3.5 mph - N/A   Mostly Cloudy
12:00 PM 30.2 °F 24.3 °F 28.4 °F 93% 30.18 in 2.5 mi West 5.8 mph - N/A   Mostly Cloudy
12:30 PM 30.2 °F 24.3 °F 28.4 °F 93% 30.18 in 3.1 mi West 5.8 mph - N/A   Mostly Cloudy
1:00 PM 32.0 °F 25.6 °F 28.4 °F 87% 30.18 in 3.1 mi West 6.9 mph - N/A   Mostly Cloudy
1:30 PM 32.0 °F 26.4 °F 30.2 °F 93% 30.18 in 2.8 mi West 5.8 mph - N/A   Mostly Cloudy
1:43 PM 32.0 °F 26.4 °F 30.2 °F 93% 30.18 in 1.9 mi WSW 5.8 mph - N/A   Mostly Cloudy
2:00 PM 32.0 °F 27.5 °F 30.2 °F 93% 30.18 in 1.4 mi WSW 4.6 mph - N/A   Mostly Cloudy
2:11 PM 32.0 °F 26.4 °F 30.2 °F 93% 30.18 in 0.9 mi WSW 5.8 mph - N/A   Mostly Cloudy
2:30 PM 32.0 °F 26.4 °F 30.2 °F 93% 30.18 in 0.5 mi West 5.8 mph - N/A Fog Fog
3:00 PM 32.0 °F 27.5 °F 32.0 °F 100% 30.18 in 0.5 mi West 4.6 mph - N/A Fog Fog
3:30 PM 32.0 °F 28.7 °F 32.0 °F 100% 30.18 in 0.5 mi West 3.5 mph - N/A Fog Fog
4:00 PM 32.0 °F 27.5 °F 32.0 °F 100% 30.18 in 0.5 mi West 4.6 mph - N/A Fog Fog
4:30 PM 32.0 °F 27.5 °F 32.0 °F 100% 30.18 in 0.9 mi West 4.6 mph - N/A Fog Patches of Fog
5:00 PM 33.8 °F 27.7 °F 32.0 °F 93% 30.18 in 1.5 mi West 6.9 mph - N/A Fog Patches of Fog
5:30 PM 33.8 °F 28.6 °F 32.0 °F 93% 30.18 in 1.5 mi West 5.8 mph - N/A Fog Patches of Fog
6:00 PM 33.8 °F 29.6 °F 33.8 °F 100% 30.18 in 1.9 mi West 4.6 mph - N/A   Mostly Cloudy
6:30 PM 33.8 °F 27.7 °F 33.8 °F 100% 30.18 in 2.5 mi WSW 6.9 mph - N/A   Mostly Cloudy
7:00 PM 33.8 °F 27.7 °F 33.8 °F 100% 30.18 in 2.8 mi West 6.9 mph - N/A   Mostly Cloudy
7:30 PM 33.8 °F 27.0 °F 32.0 °F 93% 30.18 in 2.8 mi West 8.1 mph - N/A   Mostly Cloudy
8:00 PM 33.8 °F 27.7 °F 32.0 °F 93% 30.18 in 2.8 mi West 6.9 mph - N/A   Mostly Cloudy
9:00 PM 33.8 °F 27.0 °F 32.0 °F 93% 30.18 in 2.8 mi West 8.1 mph - N/A   Mostly Cloudy
10:00 PM 33.8 °F 26.4 °F 32.0 °F 93% 30.21 in 2.2 mi WSW 9.2 mph - N/A   Mostly Cloudy
11:00 PM 33.8 °F 27.0 °F 32.0 °F 93% 30.21 in 2.2 mi West 8.1 mph - N/A   Mostly Cloudy